GW4109 Weather Reports


time (UTC)temp
C
wind
direction
speed
KPH
gust
KPH
rain 1hr
cm
rain 24hr
cm
rain mn
cm
humidity
%
barometer
mb
20260506202034 28 252 8.0 8.0 0.00 0.00 0.00 21 1018.5
20260506201532 28 20 3.2 6.4 0.00 0.00 0.00 22 1018.6
20260506201028 28 95 14.5 19.3 0.00 0.00 0.00 22 1018.8
20260506200524 28 73 8.0 9.7 0.00 0.00 0.00 22 1018.8
20260506200021 28 76 3.2 8.0 0.00 0.00 0.00 22 1018.8
20260506195518 28 126 6.4 14.5 0.00 0.00 0.00 22 1019.0
20260506195014 28 148 1.6 6.4 0.00 0.00 0.00 23 1019.1
20260506194512 28 113 6.4 12.9 0.00 0.00 0.00 22 1019.0
20260506194008 28 91 8.0 9.7 0.00 0.00 0.00 22 1019.2
20260506193505 27 97 4.8 19.3 0.00 0.00 0.00 23 1019.1
20260506192956 28 213 0.0 6.4 0.00 0.00 0.00 23 1019.2
20260506192454 28 128 9.7 9.7 0.00 0.00 0.00 22 1019.3
20260506191949 28 202 4.8 8.0 0.00 0.00 0.00 23 1019.2
20260506191447 27 163 1.6 9.7 0.00 0.00 0.00 23 1019.3
20260506190943 27 267 3.2 4.8 0.00 0.00 0.00 24 1019.4
20260506190440 27 313 1.6 6.4 0.00 0.00 0.00 25 1019.4
20260506185936 27 104 6.4 8.0 0.00 0.00 0.00 24 1019.5
20260506185434 27 173 6.4 8.0 0.00 0.00 0.00 25 1019.5
20260506184931 27 85 8.0 8.0 0.00 0.00 0.00 26 1019.5
20260506184427 27 302 0.0 4.8 0.00 0.00 0.00 25 1019.6
20260506183925 27 313 4.8 8.0 0.00 0.00 0.00 26 1019.7
20260506183420 26 112 4.8 14.5 0.00 0.00 0.00 26 1019.7
20260506182912 26 63 4.8 4.8 0.00 0.00 0.00 27 1019.8
20260506182409 26 141 3.2 6.4 0.00 0.00 0.00 28 1019.9
20260506181907 26 108 4.8 12.9 0.00 0.00 0.00 28 1019.7
20260506181404 27 96 1.6 8.0 0.00 0.00 0.00 27 1019.9
20260506180901 26 134 3.2 6.4 0.00 0.00 0.00 28 1019.8
20260506180357 25 102 6.4 14.5 0.00 0.00 0.00 29 1019.9
20260506175854 26 81 3.2 6.4 0.00 0.00 0.00 28 1019.8
20260506175350 26 82 3.2 6.4 0.00 0.00 0.00 28 1019.9
20260506174848 25 166 1.6 8.0 0.00 0.00 0.00 29 1020.0
20260506174345 25 35 1.6 8.0 0.00 0.00 0.00 30 1019.9
20260506173843 25 79 6.4 12.9 0.00 0.00 0.00 30 1019.9
20260506173339 25 58 0.0 4.8 0.00 0.00 0.00 29 1019.9
20260506172836 25 78 3.2 14.5 0.00 0.00 0.00 30 1020.2
20260506172333 24 107 4.8 9.7 0.00 0.00 0.00 30 1019.9
20260506171830 24 124 3.2 4.8 0.00 0.00 0.00 30 1020.0
20260506171327 24 112 4.8 12.9 0.00 0.00 0.00 30 1020.1
20260506170825 23 62 1.6 8.0 0.00 0.00 0.00 31 1020.0
20260506170320 24 108 4.8 8.0 0.00 0.00 0.00 30 1020.0
20260506165819 23 350 1.6 6.4 0.00 0.00 0.00 31 1019.8
20260506165316 23 95 6.4 6.4 0.00 0.00 0.00 31 1020.1
20260506164813 25 69 4.8 6.4 0.00 0.00 0.00 30 1020.0
20260506164310 24 162 3.2 6.4 0.00 0.00 0.00 31 1019.9
20260506163807 23 249 4.8 4.8 0.00 0.00 0.00 32 1019.9
20260506163301 23 145 1.6 6.4 0.00 0.00 0.00 33 1019.9
20260506162757 22 20 4.8 6.4 0.00 0.00 0.00 34 1019.8
20260506162256 22 258 0.0 4.8 0.00 0.00 0.00 34 1019.8
20260506161752 22 61 0.0 3.2 0.00 0.00 0.00 35 1019.8
20260506161250 22 89 0.0 4.8 0.00 0.00 0.00 35 1019.8
20260506160747 21 151 4.8 4.8 0.00 0.00 0.00 36 1019.7
20260506160244 22 117 6.4 6.4 0.00 0.00 0.00 35 1019.8
20260506155743 22 89 0.0 3.2 0.00 0.00 0.00 35 1019.8
20260506155239 22 109 3.2 4.8 0.00 0.00 0.00 35 1019.9
20260506153347 20 191 1.6 4.8 0.00 0.00 0.00 39 1019.7
20260506152843 20 322 0.0 4.8 0.00 0.00 0.00 40 1019.7
20260506152340 21 102 0.0 4.8 0.00 0.00 0.00 38 1019.6
20260506151839 21 269 0.0 3.2 0.00 0.00 0.00 38 1019.7
20260506151336 21 58 3.2 3.2 0.00 0.00 0.00 37 1019.7
20260506150833 20 25 0.0 1.6 0.00 0.00 0.00 39 1019.6
20260506150330 20 89 0.0 1.6 0.00 0.00 0.00 40 1019.8
20260506145826 20 86 1.6 4.8 0.00 0.00 0.00 40 1019.9
20260506145322 20 95 1.6 4.8 0.00 0.00 0.00 41 1019.8
20260506144821 19 81 3.2 4.8 0.00 0.00 0.00 41 1019.7
20260506144317 18 91 0.0 3.2 0.00 0.00 0.00 45 1019.8
20260506143816 18 22 0.0 3.2 0.00 0.00 0.00 43 1019.7
20260506143312 18 62 1.6 3.2 0.00 0.00 0.00 45 1019.7
20260506142810 17 27 3.2 3.2 0.00 0.00 0.00 46 1019.7
20260506142307 17 13 1.6 3.2 0.00 0.00 0.00 48 1019.6
20260506141806 17 21 1.6 3.2 0.00 0.00 0.00 46 1019.5
20260506141304 17 39 0.0 3.2 0.00 0.00 0.00 46 1019.7
20260506140801 17 60 1.6 3.2 0.00 0.00 0.00 46 1019.4
20260506140257 17 96 3.2 3.2 0.00 0.00 0.00 48 1019.4
20260506135755 15 34 0.0 3.2 0.00 0.00 0.00 52 1019.2
20260506135251 15 28 3.2 6.4 0.00 0.00 0.00 53 1019.3
20260506134748 14 20 1.6 3.2 0.00 0.00 0.00 54 1019.3
20260506134244 13 114 0.0 3.2 0.00 0.00 0.00 56 1019.3
20260506133742 13 151 1.6 3.2 0.00 0.00 0.00 57 1019.3
20260506133238 12 239 3.2 3.2 0.00 0.00 0.00 58 1019.1
20260506132735 11 283 0.0 3.2 0.00 0.00 0.00 60 1019.1
20260506132233 11 242 1.6 3.2 0.00 0.00 0.00 62 1019.1
20260506131731 11 181 1.6 3.2 0.00 0.00 0.00 62 1018.9
20260506131226 10 272 1.6 3.2 0.00 0.00 0.00 63 1018.9
20260506130723 10 165 0.0 3.2 0.00 0.00 0.00 62 1018.8
20260506130220 11 194 3.2 3.2 0.00 0.00 0.00 63 1018.8
20260506125718 10 151 0.0 3.2 0.00 0.00 0.00 62 1018.7
20260506125216 11 148 0.0 3.2 0.00 0.00 0.00 62 1018.8
20260506124714 10 61 1.6 3.2 0.00 0.00 0.00 63 1018.6
20260506124211 11 91 3.2 3.2 0.00 0.00 0.00 62 1018.3
20260506123708 11 256 0.0 3.2 0.00 0.00 0.00 61 1018.5
20260506123207 11 247 1.6 3.2 0.00 0.00 0.00 61 1018.5
20260506122703 11 262 1.6 3.2 0.00 0.00 0.00 60 1018.3
20260506122201 12 192 1.6 4.8 0.00 0.00 0.00 59 1018.6
20260506121659 12 215 1.6 3.2 0.00 0.00 0.00 59 1018.3
20260506121155 12 239 3.2 6.4 0.00 0.00 0.00 59 1018.4
20260506120653 11 178 0.0 3.2 0.00 0.00 0.00 62 1018.3
20260506120150 10 195 1.6 3.2 0.00 0.00 0.00 62 1018.3
20260506115648 11 184 3.2 3.2 0.00 0.00 0.00 62 1018.1
20260506115146 10 162 1.6 3.2 0.00 0.00 0.00 64 1018.3
20260506114643 11 89 0.0 3.2 0.00 0.00 0.00 63 1018.0
20260506114141 11 60 0.0 1.6 0.00 0.00 0.00 62 1018.1
20260506113639 11 22 1.6 3.2 0.00 0.00 0.00 63 1018.1
20260506113136 11 116 1.6 3.2 0.00 0.00 0.00 61 1018.2
20260506112632 12 320 0.0 3.2 0.00 0.00 0.00 60 1018.1
20260506112130 11 191 0.0 3.2 0.00 0.00 0.00 62 1018.0
20260506111627 11 240 0.0 3.2 0.00 0.00 0.00 62 1018.2
20260506111125 11 198 3.2 4.8 0.00 0.00 0.00 62 1018.1
20260506110622 11 211 3.2 3.2 0.00 0.00 0.00 62 1018.2
20260506110120 11 260 1.6 3.2 0.00 0.00 0.00 62 1018.0
20260506105616 11 231 3.2 3.2 0.00 0.00 0.00 62 1017.9
20260506105113 11 255 1.6 3.2 0.00 0.00 0.00 62 1018.2
20260506104611 11 208 1.6 3.2 0.00 0.00 0.00 62 1018.1
20260506104108 12 236 1.6 3.2 0.00 0.00 0.00 61 1018.1
20260506103606 11 172 0.0 3.2 0.00 0.00 0.00 62 1018.0
20260506103102 11 265 1.6 3.2 0.00 0.00 0.00 62 1018.0
20260506102601 11 228 0.0 4.8 0.00 0.00 0.00 62 1017.9
20260506102058 11 250 1.6 3.2 0.00 0.00 0.00 61 1017.9
20260506101554 11 171 0.0 3.2 0.00 0.00 0.00 60 1018.0
20260506101051 11 338 0.0 4.8 0.00 0.00 0.00 60 1018.0
20260506100550 11 86 1.6 3.2 0.00 0.00 0.00 59 1017.8
20260506100047 12 174 0.0 3.2 0.00 0.00 0.00 58 1017.9
20260506095546 11 240 3.2 4.8 0.00 0.00 0.00 59 1018.0
20260506095042 11 296 0.0 4.8 0.00 0.00 0.00 60 1017.9
20260506094540 11 172 1.6 3.2 0.00 0.00 0.00 61 1018.0
20260506094038 11 277 3.2 4.8 0.00 0.00 0.00 61 1017.9
20260506093536 12 189 1.6 3.2 0.00 0.00 0.00 61 1018.0
20260506093033 12 176 1.6 1.6 0.00 0.00 0.00 60 1018.1
20260506092530 12 324 0.0 3.2 0.00 0.00 0.00 60 1018.0
20260506092027 12 320 0.0 3.2 0.00 0.00 0.00 59 1018.0
20260506091526 12 47 1.6 3.2 0.00 0.00 0.00 58 1018.0
20260506091022 12 72 3.2 3.2 0.00 0.00 0.00 57 1017.9
20260506090520 13 201 0.0 6.4 0.00 0.00 0.00 56 1017.8
20260506090016 12 112 1.6 3.2 0.00 0.00 0.00 56 1017.9
20260506085513 13 231 3.2 6.4 0.00 0.00 0.00 56 1017.9
20260506085010 13 76 0.0 3.2 0.00 0.00 0.00 58 1017.9
20260506084507 13 89 0.0 3.2 0.00 0.00 0.00 56 1018.2
20260506084003 13 206 3.2 3.2 0.00 0.00 0.00 57 1018.2
20260506083500 13 254 3.2 4.8 0.00 0.00 0.00 56 1018.1
20260506082957 13 216 0.0 6.4 0.00 0.00 0.00 55 1018.1
20260506082454 13 118 1.6 4.8 0.00 0.00 0.00 57 1018.3
20260506081950 13 1 0.0 3.2 0.00 0.00 0.00 57 1018.3
20260506081448 13 246 3.2 4.8 0.00 0.00 0.00 56 1018.3
20260506080945 13 353 3.2 9.7 0.00 0.00 0.00 56 1018.3
20260506080442 13 106 3.2 4.8 0.00 0.00 0.00 55 1018.3
20260506073426 15 178 3.2 3.2 0.00 0.00 0.00 53 1018.5
20260506072923 15 269 0.0 3.2 0.00 0.00 0.00 52 1018.4
20260506072420 15 116 0.0 3.2 0.00 0.00 0.00 52 1018.5
20260506071917 15 235 1.6 4.8 0.00 0.00 0.00 51 1018.5
20260506071416 15 294 3.2 3.2 0.00 0.00 0.00 51 1018.7
20260506070912 15 202 3.2 4.8 0.00 0.00 0.00 52 1018.4
20260506070409 15 162 0.0 3.2 0.00 0.00 0.00 52 1018.7
20260506062347 17 330 4.8 17.7 0.00 0.00 0.00 48 1018.0
20260506061843 17 269 6.4 9.7 0.00 0.00 0.00 48 1017.9
20260506061339 17 344 3.2 12.9 0.00 0.00 0.00 48 1018.1
20260506060838 17 257 8.0 9.7 0.00 0.00 0.00 47 1018.0
20260506060335 17 249 8.0 11.3 0.00 0.00 0.00 47 1018.0
20260506051307 16 286 4.8 16.1 0.00 0.00 0.00 47 1018.1
20260506050805 17 247 11.3 20.9 0.00 0.00 0.00 45 1017.7
20260506050302 17 240 11.3 11.3 0.00 0.00 0.00 46 1017.9
20260506044752 17 112 0.0 4.8 0.00 0.00 0.00 45 1017.6
20260506044250 17 133 1.6 4.8 0.00 0.00 0.00 45 1017.7
20260506043747 17 242 3.2 9.7 0.00 0.00 0.00 45 1017.4
20260506043244 17 128 0.0 6.4 0.00 0.00 0.00 45 1017.2
20260506042743 17 260 3.2 9.7 0.00 0.00 0.00 44 1017.4
20260506042242 18 252 4.8 11.3 0.00 0.00 0.00 43 1017.3
20260506041740 17 288 3.2 14.5 0.00 0.00 0.00 44 1017.2
20260506041236 17 253 4.8 6.4 0.00 0.00 0.00 44 1017.2
20260506040734 17 266 11.3 14.5 0.00 0.00 0.00 44 1017.0
20260506040231 18 268 6.4 11.3 0.00 0.00 0.00 43 1016.9
20260506035727 17 235 11.3 17.7 0.00 0.00 0.00 44 1016.9
20260506035224 18 248 3.2 12.9 0.00 0.00 0.00 43 1016.7
20260506034721 18 245 9.7 12.9 0.00 0.00 0.00 43 1016.7
20260506034218 18 231 4.8 12.9 0.00 0.00 0.00 43 1016.7
20260506033716 18 273 8.0 16.1 0.00 0.00 0.00 43 1016.3
20260506033212 18 256 8.0 17.7 0.00 0.00 0.00 43 1016.3
20260506032709 18 235 6.4 12.9 0.00 0.00 0.00 43 1016.1
20260506032206 18 232 8.0 22.5 0.00 0.00 0.00 43 1016.5
20260506031703 18 279 9.7 25.7 0.00 0.00 0.00 43 1016.2
20260506031200 17 244 4.8 14.5 0.00 0.00 0.00 44 1016.2
20260506030659 18 243 17.7 25.7 0.00 0.00 0.00 43 1016.0
20260506030155 17 248 17.7 25.7 0.00 0.00 0.00 44 1015.8
20260506025652 18 236 6.4 22.5 0.00 0.00 0.00 44 1015.8
20260506025148 18 275 6.4 30.6 0.00 0.00 0.00 43 1015.6
20260506024645 18 229 14.5 19.3 0.00 0.00 0.00 44 1015.9
20260506024141 18 235 27.4 30.6 0.00 0.00 0.00 43 1015.5
20260506023638 18 275 8.0 24.1 0.00 0.00 0.00 43 1015.7
20260506023135 18 292 11.3 25.7 0.00 0.00 0.00 42 1015.4
20260506022632 18 246 17.7 29.0 0.00 0.00 0.00 42 1015.4
20260506022130 18 261 14.5 20.9 0.00 0.00 0.00 42 1015.4
20260506021628 18 257 12.9 27.4 0.00 0.00 0.00 40 1015.2
20260506021125 18 317 8.0 22.5 0.00 0.00 0.00 41 1015.1
20260506020622 18 313 9.7 29.0 0.00 0.00 0.00 40 1015.1
20260506020119 18 319 17.7 30.6 0.00 0.00 0.00 40 1014.9
20260506015617 19 315 14.5 33.8 0.00 0.00 0.00 39 1014.9
20260506015113 19 307 6.4 27.4 0.00 0.00 0.00 39 1014.8
20260506014611 19 295 14.5 38.6 0.00 0.00 0.00 38 1014.6
20260506014106 19 295 12.9 30.6 0.00 0.00 0.00 38 1014.7
20260506013605 20 305 14.5 45.1 0.00 0.00 0.00 37 1014.5
20260506013101 19 263 14.5 20.9 0.00 0.00 0.00 37 1014.7
20260506012557 20 297 16.1 25.7 0.00 0.00 0.00 36 1014.6
20260506012054 20 315 17.7 25.7 0.00 0.00 0.00 36 1014.7
20260506011552 21 245 20.9 30.6 0.00 0.00 0.00 34 1014.5
20260506011048 21 286 9.7 19.3 0.00 0.00 0.00 33 1014.7
20260506010547 21 335 12.9 30.6 0.00 0.00 0.00 33 1014.5
20260506010044 21 347 6.4 37.0 0.00 0.00 0.00 33 1014.7
20260506005541 21 246 12.9 14.5 0.00 0.00 0.00 32 1014.7
20260506005037 22 274 8.0 14.5 0.00 0.00 0.00 32 1014.6
20260506004534 22 329 8.0 9.7 0.00 0.00 0.00 32 1014.6
20260506004031 22 314 0.0 4.8 0.00 0.00 0.00 32 1014.5
20260506003527 21 233 8.0 20.9 0.00 0.00 0.00 34 1014.7
20260506003023 21 225 9.7 32.2 0.00 0.00 0.00 34 1014.8
20260506002520 21 234 41.8 49.9 0.00 0.00 0.00 34 1014.8
20260506002015 21 231 30.6 37.0 0.00 0.00 0.00 33 1014.8
20260506001512 20 235 9.7 43.5 0.00 0.00 0.00 34 1015.1
20260506001009 21 242 11.3 30.6 0.00 0.00 0.00 35 1014.9
20260506000507 21 207 11.3 38.6 0.00 0.00 0.00 34 1014.9
20260506000003 21 213 22.5 41.8 0.00 0.00 0.00 34 1015.1
20260505235502 21 227 11.3 37.0 0.00 0.00 0.00 34 1014.9
20260505234958 21 225 27.4 30.6 0.00 0.00 0.00 34 1015.2
20260505234455 21 215 16.1 29.0 0.00 0.00 0.00 34 1015.1
20260505233952 21 254 12.9 37.0 0.00 0.00 0.00 33 1015.4
20260505233450 21 241 17.7 20.9 0.00 0.00 0.00 32 1015.4
20260505232947 22 222 22.5 29.0 0.00 0.00 0.00 32 1015.3
20260505232445 22 232 22.5 29.0 0.00 0.00 0.00 32 1015.3
20260505231942 21 234 25.7 27.4 0.00 0.00 0.00 33 1015.5
20260505231439 22 239 20.9 25.7 0.00 0.00 0.00 31 1015.5
20260505230937 22 240 3.2 35.4 0.00 0.00 0.00 31 1015.3
20260505230435 22 232 14.5 32.2 0.00 0.00 0.00 32 1015.5
20260505225931 22 242 19.3 32.2 0.00 0.00 0.00 31 1015.5
20260505225428 22 242 17.7 32.2 0.00 0.00 0.00 30 1015.6
20260505224923 22 218 12.9 32.2 0.00 0.00 0.00 30 1015.6
20260505224421 21 253 22.5 35.4 0.00 0.00 0.00 31 1015.8
20260505223918 22 235 16.1 16.1 0.00 0.00 0.00 30 1016.0
20260505223415 22 227 22.5 25.7 0.00 0.00 0.00 29 1015.9
20260505222911 23 232 30.6 33.8 0.00 0.00 0.00 29 1015.8
20260505222407 21 249 12.9 24.1 0.00 0.00 0.00 32 1015.9
20260505221904 22 246 6.4 33.8 0.00 0.00 0.00 31 1016.1
20260505221401 22 183 1.6 8.0 0.00 0.00 0.00 31 1016.1
20260505220858 23 327 11.3 25.7 0.00 0.00 0.00 30 1016.1
20260505220355 21 345 4.8 20.9 0.00 0.00 0.00 32 1016.5
20260505215852 22 232 14.5 24.1 0.00 0.00 0.00 31 1016.3
20260505215351 21 309 12.9 27.4 0.00 0.00 0.00 31 1016.2
20260505214848 23 249 4.8 22.5 0.00 0.00 0.00 30 1016.6
20260505214346 22 172 1.6 12.9 0.00 0.00 0.00 31 1016.5
20260505213843 21 247 9.7 22.5 0.00 0.00 0.00 33 1016.6
20260505213341 21 253 9.7 37.0 0.00 0.00 0.00 31 1016.6
20260505212836 21 255 6.4 17.7 0.00 0.00 0.00 31 1016.8
20260505212333 21 252 8.0 17.7 0.00 0.00 0.00 32 1016.8
20260505211829 21 329 19.3 27.4 0.00 0.00 0.00 32 1016.8
20260505211327 22 264 8.0 24.1 0.00 0.00 0.00 32 1016.7
20260505210824 22 354 9.7 19.3 0.00 0.00 0.00 32 1016.7
20260505210320 21 330 9.7 19.3 0.00 0.00 0.00 35 1016.8
20260505205817 21 257 12.9 22.5 0.00 0.00 0.00 33 1016.9
20260505205316 21 333 6.4 9.7 0.00 0.00 0.00 33 1016.8
20260505204812 21 289 4.8 17.7 0.00 0.00 0.00 34 1017.0
20260505204310 22 134 0.0 24.1 0.00 0.00 0.00 31 1016.8
20260505203807 21 320 19.3 24.1 0.00 0.00 0.00 34 1016.8
20260505203304 21 310 6.4 17.7 0.00 0.00 0.00 34 1016.8
20260505202800 21 332 8.0 20.9 0.00 0.00 0.00 34 1016.7